Volver al catálogo

ARIANE 42P+ DEB

LostHEO
NORAD 27685·DEBRIS·🇫🇷 France

Lanzado Oct 28, 1992 desde Guiana Space Centre

Loading…

Próximos Pases (próximas 24 horas)

TLE

ObsoletoSource: Space-Track

Época: Sep 20, 2025, 19:21 UTC

1 27685U 92072M   25263.80673297  .00001538  00000-0  34009-2 0  9993
2 27685   6.6332  80.6484 6331463 274.6398  20.6391  3.42669975296981

Sigue ARIANE 42P+ DEB en tiempo real con AllMySat

Download on the App Store